Printer-friendly version

IAU Minor Planet Center

Minor Planet Center

MPEC 2007-D39 : 2007 DJ8

The following Minor Planet Electronic Circular may be linked-to from your own Web pages, but must not otherwise be redistributed electronically.


Read MPEC 2007-D38 Read MPEC 2007-D40


M.P.E.C. 2007-D39                                Issued 2007 Feb. 22, 12:32 UT

     The Minor Planet Electronic Circulars contain information on unusual
         minor planets and routine data on comets.  They are published
   on behalf of Commission 20 of the International Astronomical Union by the
          Minor Planet Center, Smithsonian Astrophysical Observatory,
                          Cambridge, MA 02138, U.S.A.

             Prepared using the Tamkin Foundation Computer Network

                              MPC@CFA.HARVARD.EDU
          URL http://cfa-www.harvard.edu/iau/mpc.html  ISSN 1523-6714

                                   2007 DJ8

Observations:
     K07D08J* C2007 02 21.28566 10 33 27.97 +05 37 05.5          18.9   ED039704
     K07D08J  C2007 02 21.29756 10 33 18.58 +05 32 48.7          19.3   ED039704
     K07D08J  C2007 02 21.30946 10 33 09.28 +05 28 32.7          19.1   ED039704
     K07D08J  C2007 02 21.32136 10 32 59.92 +05 24 15.8          19.2   ED039704
     K07D08J  C2007 02 21.33327 10 32 50.53 +05 20 00.3          19.1   ED039704
     K07D08J  C2007 02 22.26787 10 21 40.65 -00 04 32.1          19.9 R ED039854
     K07D08J  C2007 02 22.27037 10 21 38.90 -00 05 21.2          19.7 R ED039854
     K07D08J  C2007 02 22.27287 10 21 37.01 -00 06 14.1          19.7 R ED039854
     K07D08J  C2007 02 22.29820 10 21 17.14 -00 14 51.3          19.7 R ED039734
     K07D08J  C2007 02 22.29942 10 21 16.22 -00 15 16.3          19.9 R ED039734
     K07D08J  C2007 02 22.30067 10 21 15.33 -00 15 40.7          19.4 R ED039734
     K07D08J  C2007 02 22.30314 10 21 13.55 -00 16 30.3          19.1 R ED039734

Observer details:
704 Lincoln Laboratory ETS, New Mexico.  Observers M. Bezpalko, D. Torres,
    R. Kracke, G. Spitz, J. Kistler.  Measurers J. Stuart, S. Scruggs.  1.0-m
    f/2.15 reflector + CCD.
734 Farpoint Observatory.  Observer G. Hug.  Measurer D. Tibbets.  0.7-m
    reflector + CCD.
854 Sabino Canyon Observatory, Tucson.  Observer J. E. McGaha.  0.36-m f/10.0
    Schmidt-Cassegrain + CCD.

Orbital elements:
2007 DJ8                                                 Earth MOID = 0.0779 AU
Epoch 2007 Apr. 10.0 TT = JDT 2454200.5                 MPC
M  33.58910              (2000.0)            P               Q
n   0.46768567     Peri.  154.80653     -0.62807506     -0.74239406
a   1.6437408      Node   332.17155     +0.60219450     -0.27393288
e   0.3666635      Incl.   29.96695     +0.49283213     -0.61140153
P   2.11           H   24.4           G   0.15           U   9
Residuals in seconds of arc
070221 704  0.1-  0.5+    070221 704  0.2-  0.0     070222 734  0.2+  0.0
070221 704  0.5-  0.0     070222 854  0.4-  0.3+    070222 734  0.3-  0.6-
070221 704  0.4+  0.2+    070222 854  0.7+  1.4+    070222 734  0.1-  0.1+
070221 704  0.4+  0.7-    070222 854  0.3-  1.2-    070222 734  0.1+  0.0

Ephemeris:
2007 DJ8                 a,e,i = 1.64, 0.37, 30                  q = 1.0410
Date    TT    R. A. (2000) Decl.     Delta      r     Elong.  Phase     V
2007 02 19    11 04.55   +19 48.3    0.0787   1.064   164.0    14.8    19.8
2007 02 20    10 50.32   +13 32.7    0.0789   1.066   170.3     9.0    19.6
2007 02 21    10 37.06   +07 21.6    0.0803   1.069   173.7     5.9    19.5
2007 02 22    10 24.78   +01 27.4    0.0829   1.071   170.9     8.4    19.7
2007 02 23    10 13.46   -04 00.8    0.0866   1.073   165.7    13.2    20.0
2007 02 24    10 03.06   -08 57.8    0.0912   1.076   160.4    18.0    20.3
2007 02 25    09 53.53   -13 22.1    0.0967   1.078   155.5    22.4    20.6
2007 02 26    09 44.82   -17 14.4    0.103    1.081   151.0    26.3    20.8
2007 02 27    09 36.86   -20 37.3    0.110    1.084   147.1    29.7    21.1
2007 02 28    09 29.60   -23 33.9    0.117    1.087   143.6    32.7    21.3
2007 03 01    09 22.98   -26 07.3    0.124    1.090   140.5    35.3    21.5
2007 03 02    09 16.94   -28 20.8    0.132    1.092   137.8    37.6    21.7
2007 03 03    09 11.44   -30 17.1    0.140    1.095   135.3    39.5    21.9
2007 03 04    09 06.43   -31 58.8    0.149    1.099   133.2    41.1    22.1
2007 03 05    09 01.86   -33 27.9    0.157    1.102   131.2    42.6    22.2
2007 03 06    08 57.70   -34 46.3    0.166    1.105   129.5    43.8    22.4
2007 03 07    08 53.92   -35 55.4    0.175    1.108   127.9    44.9    22.6
2007 03 08    08 50.48   -36 56.5    0.184    1.112   126.5    45.8    22.7
2007 03 09    08 47.35   -37 50.7    0.193    1.115   125.2    46.6    22.8
2007 03 10    08 44.51   -38 39.0    0.202    1.119   124.1    47.3    23.0
2007 03 11    08 41.94   -39 22.0    0.211    1.122   123.0    47.9    23.1

Timothy B. Spahr             (C) Copyright 2007 MPC           M.P.E.C. 2007-D39

Read MPEC 2007-D38 Read MPEC 2007-D40


Our Web policy. Index to the CBAT/MPC/ICQ pages.


Valid HTML 4.01!